sat.trackr.live / text

‹ back to catalog

STARLINK-36222

NORAD 67097 · 2025-298Y

PAYLOAD ACTIVE UNKNOWN

§ Identity

Operator
Country
US
Launch date
2025-12-14
Launch site
AFWTR
Launch vehicle
Mass (kg)
RCS (m²)

Purposes: comms

External: N2YO · Heavens-Above · Gunter

§ Orbital elements

Epoch: 2026-05-25T03:01:12.743616Z

Period
96.11 min
Inclination
70.0007°
Eccentricity
0.0003803
Mean motion
14.98352912 rev/d
Perigee alt
569.3 km
Apogee alt
574.6 km
Semi-major
6,950.1 km
B*
6.0961e-4
RAAN
181.8528°
Arg perigee
267.2294°
Mean anomaly
92.8429°
Rev number
2,466

§ Raw data

STARLINK-362221 67097U 25298Y   26145.12584194  .00007193  00000+0  60961-3 0  99912 67097  70.0007 181.8528 0003803 267.2294  92.8429 14.98352912 24660

JSON: /api/v1/satellites/67097 · /tle

For live sub-satellite position, see the globe view (requires WebGL).

§ Visibility from observer

Set your observer location to see the next 7 days of passes ≥ 10°. The values pass through the URL so the page stays shareable.

No JS? Fill the form by hand. The geolocation button needs JavaScript.